"Pseudo-MPEC" for C370K42

Created 2020 Sep 19 22:07:08 UT using Find_Orb

Click here for an explanation of pseudo-MPECs

 
 Astrometry: 
     C370K42  C2020 09 15.42287 01 29 00.33 -14 40 39.0    ~9FBq 20.2 GVNEOCPG96
     C370K42  C2020 09 15.42805 01 29 00.06 -14 40 39.1    ~9FBq 21.1 GVNEOCPG96
     C370K42  C2020 09 15.43320 01 28 59.65 -14 40 39.9    ~9FBq 20.2 GVNEOCPG96
     C370K42  C2020 09 15.43836 01 28 59.33 -14 40 39.4    ~9FBq 20.3 GVNEOCPG96
     C370K42 1C2020 09 15j`S$Xj(iry`a4rY!LkW%BkVskGAmk8QE/Zi8$akdI]\'c(8B$]Rx246
     C370K42 1C2020 09 15NysvjuhvQg_fVQjrCTu#kW^.9vPrY(Jb\C8ZVIG5#m%uj4pm%(Qh246
     C370K42 1C2020 09 15u'rm;U=#7`oqXO((PAstrometryx=SEw)61S)j[52W+JW`B4Q();246
     C370K42  C2020 09 16.29330 01 28 04.06 -14 40 13.3    ~9G7b       VNEOCPI52
     C370K42  C2020 09 16.29676 01 28 03.75 -14 40 12.7    ~9G7b 19.6 GVNEOCPI52
     C370K42  C2020 09 16.30022 01 28 03.47 -14 40 11.2    ~9G7b 20.9 GVNEOCPI52
     C370K42  C2020 09 16.30368 01 28 03.24 -14 40 11.8    ~9G7b 20.5 GVNEOCPI52
     C370K42 KC2020 09 172*C(:pNkS,!GB6YSSdW0JyEU((XCob@1E4[M4k\ul)=)=J6''F,'711
     C370K42 KC2020 09 17Eac(s,w6.[:D.tXSW-E`$(#N_V?redacted;E]d`FFZ,Cpf,+ZP9711
     C370K42 IC2020 09 17Ubl2pkLNtP#li314JPNJclickv.V@XvcVVV1HChnp=ht4CaFW1P+711
     C370K42  C2020 09 17[LnkFLgLjC\hereF/UIRC=:_VhsyOs0`IpuPfPD-#4Q9[`n*l8!IF52
     C370K42  C2020 09 17,`%uYY$-i?09:`Wfor[7hn6s-K3V/ZH0)Tpb)*Ab7e'GXub6VS8yF52
     C370K42  C2020 09 17G(L.T:=tfNWuxs$(ofsZGulC](Sjt,k#Yexplanationy1srNG^VF52
     C370K42  C2020 09 19.30026 01 24 45.81 -14 38 15.8    ~9J7q 20.8 GVNEOCPI52
     C370K42  C2020 09 19.30340 01 24 45.66 -14 38 15.3    ~9J7q 20.9 GVNEOCPI52
     C370K42  C2020 09 19.30654 01 24 45.44 -14 38 14.8    ~9J7q 20.4 GVNEOCPI52
     C370K42  C2020 09 19.30968 01 24 45.26 -14 38 14.6    ~9J7q 20.3 GVNEOCPI52

Station data:
(246) Klet Observatory-KLENOT  (N48.863293 E14.288100)  Czech Republic.
   1.06-m KLENOT telescope.
(711) McDonald Observatory, Fort Davis  (N30.671481 W104.021500)  US/Texas.
   0.76-m f/3.0 reflector.
(F52) Pan-STARRS 2, Haleakala  (N20.707384 W156.255910)  US/Hawaii. 1.8-m
   Ritchey-Chrétien + CCD.
(G96) Mt. Lemmon Survey  (N32.442754 W110.788720)  US/Arizona.  Observers T.
   A. Pruyne, B. M. Africano, E. J. Christensen, G. A. Farneth, D. C. Fuls,
   A. R. Gibbs, A. D. Grauer, H. Gröller, J. A. Johnson, R. A. Kowalski, S.
   M. Larson, G. J. Leonard, D. Rankin, R. L. Seaman, F. C. Shelly. 1.5-m
   reflector + 10K CCD.
(I52) Steward Observatory, Mt. Lemmon Station  (N32.442547 W110.788920)
   US/Arizona.  Observers T. A. Pruyne, B. M. Africano, E. J. Christensen, G.
   A. Farneth, D. C. Fuls, A. R. Gibbs, A. D. Grauer, H. Gröller, J. A.
   Johnson, R. A. Kowalski, S. M. Larson, G. J. Leonard, D. Rankin, R. L.
   Seaman, F. C. Shelly. 1.0-m reflector + CCD.

Orbital elements:  C370K42
   Perihelion 2019 Sep 18.510835 +/- 56.7 TT = 12:15:36 (JD 2458745.010835)
Epoch 2020 Sep 19.0 TT = JDT 2459111.5   Ju: 0.2795           AutoNEOCP
M   0.01317547 +/- 1.3              (J2000 ecliptic)
n   0.00003595 +/-                  Peri.  264.33351 +/- 18
a 909.213628 +/-                    Node    13.56863 +/- 5.2
e   0.9969955 +/- 0.0989            Incl.   77.97396 +/- 17
P  27415                   H 14.4   G  0.15   U  8.5  
q 2.73168860 +/- 0.95    Q 1815.69556 +/- 6427
From 21 observations 2020 Sept. 15-19; mean residual 1".35
Residuals in arcseconds: 
200915 G96  2.0-  .21+    200916 I52  .78+  1.0-    200917 F52  .08-  .37+    
200915 G96  .98-  .05-    200916 I52  .40-  .51-    200917 F52  .24-  1.0+    
200915 G96  2.0-  1.0-    200916 I52  1.2-  .88+    200917 F52  .15-  .76+    
200915 G96  1.8-  .66-    200916 I52  1.2-  .17+    200919 I52  .51-  .85-    
200915 246  5.5+  .40+    200917 711  1.1-  .14-    200919 I52  .39+  .49-    
200915 246  4.3+  .73-    200917 711  1.4-  .32+    200919 I52  .26+  .13-    
200915 246  .53+  .72+    200917 711  .52-  .38+    200919 I52  .72+  .07-    

Ephemerides (geocentric):
Date (UTC) HH   RA              Dec         delta   r     elong  mag " sig PA
---- -- -- --  -------------   -----------  ------ ------ -----  --- ---- ---
2020 09 19 22  01 24 04.704   -14 37 44.18  3.6085 4.5265 153.0 20.9 1.18 158
2020 09 19 23  01 24 01.922   -14 37 42.15  3.6086 4.5268 153.1 20.9 1.21 160
2020 09 20 00  01 23 59.139   -14 37 40.12  3.6087 4.5271 153.1 20.9 1.25 161
2020 09 20 01  01 23 56.356   -14 37 38.07  3.6088 4.5274 153.1 20.9 1.28 162
2020 09 20 02  01 23 53.572   -14 37 36.02  3.6089 4.5277 153.2 20.9 1.32 163
2020 09 20 03  01 23 50.787   -14 37 33.96  3.6090 4.5280 153.2 20.9 1.36 164
2020 09 20 04  01 23 48.002   -14 37 31.89  3.6091 4.5283 153.2 20.9 1.40 165
2020 09 20 05  01 23 45.216   -14 37 29.82  3.6092 4.5286 153.3 20.9 1.44 166
2020 09 20 06  01 23 42.430   -14 37 27.73  3.6093 4.5289 153.3 20.9 1.48 167
2020 09 20 07  01 23 39.643   -14 37 25.64  3.6094 4.5292 153.3 20.9 1.52 168
2020 09 20 08  01 23 36.856   -14 37 23.54  3.6095 4.5295 153.4 20.9 1.56 168
2020 09 20 09  01 23 34.067   -14 37 21.43  3.6096 4.5298 153.4 20.9 1.61 169
2020 09 20 10  01 23 31.279   -14 37 19.31  3.6097 4.5301 153.4 20.9 1.65 170
2020 09 20 11  01 23 28.489   -14 37 17.19  3.6098 4.5304 153.5 20.9 1.70 171
2020 09 20 12  01 23 25.699   -14 37 15.05  3.6099 4.5307 153.5 20.9 1.75 172
2020 09 20 13  01 23 22.909   -14 37 12.91  3.6100 4.5310 153.5 20.9 1.79 172
2020 09 20 14  01 23 20.118   -14 37 10.76  3.6101 4.5313 153.6 20.9 1.84 173
2020 09 20 15  01 23 17.326   -14 37 08.60  3.6102 4.5316 153.6 20.9 1.89 174
2020 09 20 16  01 23 14.534   -14 37 06.43  3.6103 4.5319 153.6 20.9 1.94 174
2020 09 20 17  01 23 11.741   -14 37 04.26  3.6104 4.5322 153.7 20.9 2.00 175
2020 09 20 18  01 23 08.947   -14 37 02.07  3.6106 4.5325 153.7 20.9 2.05 176
2020 09 20 19  01 23 06.153   -14 36 59.88  3.6107 4.5328 153.7 20.9 2.10 176
2020 09 20 20  01 23 03.359   -14 36 57.68  3.6108 4.5331 153.8 20.9 2.16 177
2020 09 20 21  01 23 00.563   -14 36 55.47  3.6109 4.5334 153.8 20.9 2.21 177
2020 09 20 22  01 22 57.768   -14 36 53.25  3.6110 4.5337 153.8 20.9 2.27 178
2020 09 20 23  01 22 54.971   -14 36 51.03  3.6111 4.5340 153.8 20.9 2.32 179
2020 09 21 00  01 22 52.174   -14 36 48.80  3.6112 4.5343 153.9 20.9 2.38 179
2020 09 21 01  01 22 49.377   -14 36 46.55  3.6113 4.5346 153.9 20.9 2.44   0
2020 09 21 02  01 22 46.579   -14 36 44.30  3.6114 4.5349 153.9 20.9 2.50   0
2020 09 21 03  01 22 43.780   -14 36 42.04  3.6116 4.5352 154.0 20.9 2.56   1
2020 09 21 04  01 22 40.981   -14 36 39.78  3.6117 4.5355 154.0 20.9 2.62   1
2020 09 21 05  01 22 38.182   -14 36 37.50  3.6118 4.5358 154.0 20.9 2.69   2
2020 09 21 06  01 22 35.381   -14 36 35.21  3.6119 4.5361 154.1 20.9 2.75   2
2020 09 21 07  01 22 32.581   -14 36 32.92  3.6120 4.5364 154.1 20.9 2.81   3
2020 09 21 08  01 22 29.779   -14 36 30.62  3.6121 4.5367 154.1 20.9 2.88   3
2020 09 21 09  01 22 26.977   -14 36 28.31  3.6122 4.5370 154.2 20.9 2.95   3
2020 09 21 10  01 22 24.175   -14 36 25.99  3.6124 4.5373 154.2 20.9 3.01   4
2020 09 21 11  01 22 21.372   -14 36 23.67  3.6125 4.5376 154.2 20.9 3.08   4
2020 09 21 12  01 22 18.569   -14 36 21.33  3.6126 4.5379 154.3 20.9 3.15   5
2020 09 21 13  01 22 15.765   -14 36 18.99  3.6127 4.5382 154.3 20.9 3.22   5
2020 09 21 14  01 22 12.960   -14 36 16.63  3.6128 4.5385 154.3 20.9 3.29   5
2020 09 21 15  01 22 10.155   -14 36 14.27  3.6130 4.5388 154.4 20.9 3.36   6
2020 09 21 16  01 22 07.350   -14 36 11.90  3.6131 4.5391 154.4 20.9 3.44   6
2020 09 21 17  01 22 04.544   -14 36 09.53  3.6132 4.5394 154.4 20.9 3.51   6
2020 09 21 18  01 22 01.737   -14 36 07.14  3.6133 4.5397 154.5 20.9 3.58   7
2020 09 21 19  01 21 58.930   -14 36 04.74  3.6134 4.5400 154.5 20.9 3.66   7
2020 09 21 20  01 21 56.122   -14 36 02.34  3.6136 4.5403 154.5 20.9 3.74   8
2020 09 21 21  01 21 53.314   -14 35 59.93  3.6137 4.5406 154.6 20.9 3.81   8